Torna al catalogo

STARLINK-11246

AttivoComunicazioniVLEO
NORAD 60932·PAYLOAD·🇺🇸 United States

Lanciato Aug 31, 2024 da Vandenberg Space Force Base

Loading…

Prossimi Passaggi (prossime 24 ore)

TLE

AggiornatoSource: CelesTrak SupGP

Epoca: Sep 15, 2026, 02:32 UTC

1 60932C 24155J   26258.10604167  .00072322  00000+0  59559-3 0  2584
2 60932  53.1564 127.2912 0001083  90.6869 325.8079 15.69679274    11

Traccia STARLINK-11246 in tempo reale con AllMySat

Download on the App Store